Precipitable_Water
1.46 1.51 1.57 1.64 1.65 1.62 1.62 1.58 1.54 1.59 1.60 1.62 1.64 1.68 1.66 1.68 1.68 1.69 1.74 1.74 1.75 1.71 1.68 1.65 1.66 1.65 1.62 1.60 1.57 1.52 1.49 1.46 1.45 1.43 1.40 1.41 1.46 1.49 1.52 1.55 1.53 1.54 1.52 1.48 1.49 1.47 1.46 1.46 1.53 1.59 1.60 1.51 1.48 1.45 1.42 1.50 1.52 1.49 1.49 1.54 1.60 1.72 1.62 1.45 1.25 1.19 1.33 1.48 1.34 1.25 1.25 1.21 1.08 1.15 1.11 1.09 1.16 1.20 1.25 1.29 1.30 1.27 1.28 1.34 1.37
1.38 1.44 1.52 1.59 1.59 1.61 1.60 1.60 1.60 1.61 1.59 1.62 1.62 1.67 1.68 1.69 1.71 1.72 1.68 1.73 1.73 1.66 1.69 1.73 1.70 1.66 1.61 1.59 1.61 1.60 1.58 1.54 1.51 1.49 1.45 1.43 1.45 1.51 1.49 1.51 1.52 1.52 1.51 1.45 1.47 1.51 1.50 1.47 1.49 1.51 1.52 1.44 1.41 1.41 1.43 1.46 1.51 1.48 1.49 1.52 1.53 1.53 1.57 1.38 1.29 1.14 1.02 1.16 1.13 1.16 1.07 1.11 0.93 1.06 1.01 1.01 1.09 1.21 1.22 1.23 1.28 1.28 1.30 1.37 1.41
1.36 1.40 1.46 1.51 1.55 1.60 1.61 1.59 1.61 1.63 1.61 1.65 1.65 1.67 1.71 1.71 1.73 1.68 1.65 1.70 1.74 1.69 1.69 1.73 1.74 1.69 1.62 1.60 1.60 1.61 1.64 1.64 1.59 1.56 1.56 1.56 1.54 1.55 1.52 1.51 1.51 1.51 1.50 1.51 1.50 1.50 1.45 1.42 1.40 1.41 1.45 1.42 1.43 1.43 1.48 1.52 1.61 1.57 1.52 1.51 1.42 1.42 1.48 1.46 1.26 1.08 1.01 0.96 1.01 0.93 0.94 0.97 0.94 0.91 0.95 1.07 1.22 1.28 1.24 1.23 1.24 1.28 1.38 1.44 1.49
1.37 1.36 1.38 1.44 1.50 1.54 1.55 1.59 1.58 1.60 1.60 1.66 1.67 1.67 1.71 1.73 1.74 1.67 1.66 1.67 1.69 1.73 1.73 1.68 1.68 1.67 1.64 1.60 1.56 1.56 1.64 1.70 1.68 1.65 1.62 1.63 1.63 1.60 1.58 1.56 1.57 1.62 1.62 1.60 1.57 1.54 1.50 1.46 1.44 1.45 1.46 1.39 1.41 1.41 1.42 1.44 1.43 1.40 1.36 1.41 1.42 1.40 1.36 1.33 1.28 1.13 1.03 0.84 0.88 0.87 0.95 0.88 0.89 0.95 1.05 1.13 1.19 1.19 1.22 1.25 1.29 1.31 1.39 1.49 1.54
1.38 1.37 1.37 1.38 1.44 1.47 1.49 1.52 1.52 1.55 1.57 1.62 1.66 1.69 1.69 1.72 1.74 1.70 1.69 1.66 1.67 1.69 1.70 1.71 1.66 1.64 1.62 1.61 1.58 1.59 1.65 1.71 1.72 1.69 1.66 1.67 1.68 1.66 1.64 1.61 1.59 1.63 1.67 1.67 1.65 1.59 1.52 1.47 1.43 1.40 1.38 1.30 1.28 1.28 1.31 1.27 1.31 1.32 1.30 1.33 1.28 1.25 1.22 1.20 1.16 1.13 1.00 0.88 0.88 0.96 0.97 0.91 0.94 0.97 1.11 1.10 1.11 1.14 1.19 1.21 1.25 1.31 1.38 1.47 1.49
1.41 1.38 1.38 1.36 1.37 1.40 1.46 1.48 1.46 1.51 1.57 1.60 1.63 1.67 1.69 1.71 1.73 1.75 1.73 1.67 1.67 1.67 1.66 1.68 1.65 1.62 1.64 1.65 1.63 1.64 1.68 1.69 1.70 1.70 1.67 1.66 1.65 1.68 1.69 1.66 1.65 1.63 1.63 1.62 1.59 1.55 1.46 1.37 1.36 1.35 1.33 1.29 1.30 1.34 1.36 1.34 1.34 1.30 1.24 1.21 1.19 1.18 1.13 1.10 1.07 1.05 1.03 0.99 0.98 0.91 0.88 0.83 0.89 0.95 1.12 1.24 1.19 1.12 1.16 1.25 1.28 1.31 1.32 1.33 1.43
1.44 1.41 1.41 1.38 1.34 1.36 1.41 1.43 1.45 1.46 1.52 1.59 1.62 1.63 1.66 1.71 1.73 1.70 1.72 1.70 1.67 1.67 1.69 1.68 1.69 1.65 1.64 1.65 1.62 1.60 1.62 1.65 1.65 1.66 1.67 1.65 1.62 1.62 1.64 1.67 1.68 1.74 1.74 1.71 1.69 1.64 1.57 1.52 1.48 1.46 1.42 1.38 1.35 1.35 1.38 1.39 1.38 1.35 1.32 1.24 1.21 1.17 1.11 1.08 1.10 1.08 1.07 1.04 1.00 0.92 0.85 0.96 1.03 1.01 1.18 1.31 1.31 1.25 1.15 1.11 1.07 1.26 1.38 1.41 1.40
1.46 1.44 1.45 1.44 1.37 1.37 1.42 1.44 1.44 1.46 1.49 1.53 1.59 1.62 1.64 1.69 1.72 1.73 1.75 1.72 1.70 1.71 1.73 1.73 1.74 1.72 1.71 1.69 1.66 1.61 1.56 1.56 1.58 1.62 1.64 1.64 1.61 1.59 1.63 1.66 1.72 1.75 1.74 1.77 1.74 1.69 1.63 1.60 1.56 1.53 1.50 1.47 1.43 1.42 1.44 1.41 1.43 1.35 1.34 1.31 1.26 1.18 1.16 1.18 1.19 1.17 1.10 1.02 0.93 0.88 0.97 1.01 1.10 1.22 1.29 1.30 1.22 1.22 1.31 1.25 1.13 1.16 1.28 1.45 1.53
1.52 1.47 1.46 1.44 1.42 1.42 1.46 1.47 1.47 1.48 1.49 1.48 1.51 1.57 1.61 1.64 1.67 1.72 1.75 1.75 1.76 1.75 1.76 1.78 1.78 1.78 1.79 1.80 1.77 1.75 1.69 1.64 1.63 1.63 1.62 1.61 1.62 1.60 1.62 1.65 1.68 1.70 1.73 1.73 1.72 1.69 1.64 1.59 1.56 1.53 1.50 1.48 1.47 1.46 1.44 1.44 1.40 1.34 1.35 1.36 1.30 1.24 1.23 1.24 1.22 1.16 1.10 1.03 0.97 1.03 1.05 1.06 1.13 1.18 1.22 1.23 1.21 1.22 1.40 1.46 1.36 1.37 1.36 1.33 1.50
1.54 1.53 1.49 1.45 1.45 1.47 1.48 1.47 1.46 1.48 1.48 1.48 1.47 1.48 1.54 1.59 1.60 1.61 1.63 1.66 1.71 1.74 1.74 1.76 1.79 1.80 1.81 1.83 1.83 1.82 1.81 1.83 1.81 1.78 1.76 1.72 1.69 1.66 1.66 1.66 1.66 1.68 1.70 1.67 1.66 1.67 1.66 1.63 1.60 1.60 1.59 1.57 1.56 1.53 1.56 1.57 1.54 1.49 1.45 1.44 1.36 1.32 1.30 1.25 1.22 1.21 1.15 1.06 1.05 1.06 1.03 1.07 1.19 1.31 1.33 1.40 1.45 1.52 1.47 1.45 1.34 1.40 1.41 1.37 1.43
1.54 1.54 1.53 1.52 1.50 1.50 1.50 1.47 1.47 1.45 1.47 1.49 1.50 1.46 1.45 1.48 1.52 1.57 1.59 1.61 1.62 1.65 1.66 1.68 1.73 1.76 1.79 1.81 1.82 1.88 1.90 1.90 1.88 1.86 1.84 1.83 1.82 1.77 1.72 1.70 1.72 1.72 1.70 1.67 1.64 1.64 1.63 1.63 1.63 1.63 1.61 1.58 1.56 1.53 1.50 1.46 1.44 1.49 1.53 1.55 1.54 1.46 1.38 1.33 1.32 1.30 1.22 1.15 1.16 1.16 1.16 1.15 1.26 1.38 1.40 1.44 1.51 1.50 1.46 1.46 1.42 1.41 1.37 1.30 1.22
1.58 1.57 1.57 1.57 1.54 1.50 1.49 1.49 1.47 1.47 1.50 1.49 1.48 1.48 1.46 1.44 1.43 1.46 1.51 1.53 1.57 1.61 1.61 1.60 1.62 1.67 1.73 1.76 1.79 1.85 1.87 1.88 1.87 1.87 1.87 1.87 1.88 1.86 1.82 1.74 1.71 1.69 1.68 1.65 1.60 1.55 1.53 1.53 1.57 1.63 1.64 1.62 1.58 1.54 1.53 1.54 1.54 1.57 1.60 1.65 1.66 1.67 1.62 1.50 1.40 1.36 1.34 1.24 1.17 1.19 1.19 1.19 1.28 1.40 1.44 1.47 1.48 1.51 1.52 1.51 1.49 1.47 1.45 1.44 1.47
1.69 1.68 1.67 1.64 1.62 1.57 1.52 1.50 1.50 1.49 1.49 1.50 1.52 1.51 1.44 1.40 1.38 1.37 1.40 1.48 1.53 1.54 1.56 1.57 1.55 1.57 1.59 1.59 1.63 1.73 1.79 1.80 1.76 1.74 1.73 1.74 1.78 1.81 1.80 1.75 1.68 1.66 1.66 1.60 1.54 1.50 1.48 1.49 1.52 1.56 1.57 1.59 1.56 1.55 1.52 1.52 1.56 1.59 1.63 1.66 1.67 1.64 1.59 1.56 1.58 1.53 1.49 1.37 1.27 1.24 1.27 1.30 1.30 1.41 1.55 1.57 1.64 1.51 1.53 1.51 1.56 1.60 1.64 1.61 1.63
1.93 1.84 1.73 1.70 1.72 1.69 1.64 1.61 1.57 1.52 1.51 1.50 1.49 1.48 1.46 1.40 1.38 1.38 1.41 1.48 1.52 1.53 1.54 1.54 1.56 1.54 1.50 1.46 1.45 1.49 1.53 1.59 1.63 1.66 1.66 1.65 1.66 1.69 1.69 1.68 1.67 1.65 1.63 1.62 1.59 1.55 1.52 1.49 1.45 1.42 1.45 1.45 1.43 1.41 1.40 1.40 1.42 1.43 1.49 1.56 1.59 1.63 1.67 1.70 1.72 1.73 1.70 1.59 1.52 1.42 1.49 1.48 1.37 1.44 1.58 1.65 1.57 1.53 1.54 1.53 1.65 1.66 1.69 1.71 1.80
1.80 1.79 1.74 1.73 1.76 1.79 1.71 1.58 1.58 1.70 1.71 1.67 1.58 1.51 1.53 1.49 1.44 1.45 1.44 1.43 1.44 1.45 1.46 1.44 1.47 1.48 1.47 1.46 1.43 1.43 1.45 1.48 1.48 1.49 1.50 1.52 1.55 1.58 1.59 1.59 1.58 1.59 1.61 1.63 1.61 1.59 1.57 1.55 1.51 1.46 1.45 1.41 1.40 1.39 1.36 1.35 1.35 1.37 1.41 1.47 1.55 1.59 1.62 1.64 1.65 1.70 1.75 1.80 1.78 1.71 1.65 1.61 1.55 1.55 1.62 1.71 1.72 1.73 1.73 1.69 1.70 1.70 1.73 1.81 1.80
1.79 1.78 1.79 1.84 1.86 1.90 1.90 1.80 1.69 1.75 1.88 1.74 1.61 1.68 1.70 1.65 1.55 1.55 1.54 1.54 1.55 1.56 1.55 1.51 1.42 1.37 1.38 1.37 1.35 1.33 1.38 1.44 1.47 1.47 1.47 1.47 1.49 1.51 1.51 1.50 1.50 1.51 1.54 1.57 1.59 1.60 1.59 1.54 1.49 1.46 1.45 1.40 1.37 1.35 1.33 1.32 1.27 1.23 1.23 1.29 1.36 1.45 1.52 1.62 1.61 1.60 1.67 1.78 1.84 1.85 1.82 1.76 1.71 1.70 1.76 1.81 1.84 1.86 1.85 1.84 1.81 1.74 1.65 1.57 1.53
1.91 1.89 1.86 1.92 2.00 1.99 1.94 1.92 1.88 1.80 1.74 1.74 1.85 1.83 1.75 1.72 1.73 1.73 1.65 1.65 1.68 1.70 1.71 1.70 1.66 1.58 1.52 1.49 1.44 1.42 1.43 1.46 1.50 1.54 1.57 1.60 1.61 1.58 1.55 1.52 1.50 1.50 1.54 1.59 1.62 1.64 1.64 1.63 1.61 1.57 1.51 1.43 1.40 1.37 1.36 1.37 1.33 1.29 1.28 1.28 1.33 1.37 1.42 1.50 1.54 1.60 1.71 1.82 1.88 1.91 1.92 1.93 1.95 1.95 1.96 1.97 1.96 1.97 1.88 1.68 1.57 1.62 1.55 1.49 1.56
1.94 1.92 1.89 1.92 1.96 1.97 1.97 1.96 1.91 1.86 1.83 1.74 1.72 1.82 1.93 1.91 1.85 1.87 1.77 1.74 1.73 1.77 1.82 1.83 1.86 1.83 1.76 1.71 1.71 1.68 1.68 1.68 1.65 1.64 1.65 1.69 1.72 1.70 1.70 1.66 1.62 1.60 1.62 1.69 1.73 1.77 1.82 1.86 1.88 1.85 1.78 1.70 1.62 1.54 1.51 1.51 1.46 1.46 1.44 1.42 1.42 1.46 1.56 1.63 1.63 1.65 1.71 1.77 1.84 1.88 1.92 1.97 2.02 2.07 2.11 2.13 2.13 2.08 1.88 1.62 1.61 1.60 1.51 1.54 1.51
1.89 1.87 1.88 1.91 1.94 1.99 2.01 2.00 1.98 1.94 1.93 1.91 1.83 1.79 1.88 1.99 2.01 1.99 1.91 1.86 1.84 1.87 1.87 1.86 1.89 1.92 1.89 1.86 1.87 1.84 1.86 1.91 1.93 1.91 1.88 1.87 1.87 1.87 1.85 1.83 1.78 1.79 1.80 1.82 1.89 1.94 1.98 1.99 1.95 1.95 1.94 1.91 1.88 1.81 1.73 1.68 1.63 1.62 1.61 1.59 1.57 1.60 1.68 1.74 1.71 1.68 1.72 1.75 1.82 1.91 1.96 2.08 2.12 2.07 2.05 2.04 2.02 2.02 1.94 1.82 1.77 1.65 1.57 1.61 1.64
2.01 2.04 2.03 2.02 2.03 2.04 2.04 2.02 2.01 2.00 2.00 2.01 2.02 1.99 2.00 2.07 2.06 2.04 2.03 1.98 1.91 1.89 1.89 1.87 1.85 1.89 1.92 1.91 1.90 1.91 1.92 1.94 1.97 2.00 2.03 2.04 2.04 2.00 1.98 1.93 1.90 1.96 2.02 2.02 1.99 2.02 2.06 2.06 2.05 2.03 2.01 1.99 1.99 1.97 1.90 1.81 1.74 1.72 1.72 1.68 1.66 1.67 1.79 1.76 1.78 1.81 1.85 1.87 1.86 1.86 1.88 1.94 1.92 1.88 1.82 1.80 1.85 1.91 1.89 1.84 1.80 1.75 1.68 1.65 1.62
1.97 2.02 2.06 2.06 2.07 2.07 2.09 2.10 2.09 2.11 2.12 2.11 2.13 2.14 2.10 2.07 2.08 2.09 2.10 2.08 2.03 1.97 1.96 1.94 1.92 1.93 1.94 1.95 1.93 1.93 1.91 1.92 1.93 1.95 1.97 2.03 2.08 2.09 2.10 2.07 2.07 2.09 2.13 2.13 2.08 2.05 2.01 2.01 2.02 2.02 2.01 1.99 1.98 1.97 1.92 1.84 1.78 1.73 1.69 1.64 1.65 1.69 1.76 1.75 1.80 1.88 1.86 1.81 1.71 1.63 1.58 1.55 1.52 1.50 1.48 1.47 1.49 1.53 1.56 1.54 1.58 1.55 1.46 1.36 1.27
1.96 1.99 2.00 2.06 2.09 2.06 2.05 2.06 2.11 2.12 2.15 2.15 2.12 2.11 2.14 2.15 2.13 2.11 2.11 2.08 2.07 2.05 2.04 2.00 1.96 1.90 1.93 1.97 1.97 1.98 2.00 1.94 1.93 1.92 1.91 1.97 2.04 2.08 2.09 2.09 2.12 2.12 2.08 2.04 2.07 2.00 1.98 1.99 1.95 1.96 1.95 1.91 1.87 1.80 1.75 1.70 1.66 1.63 1.58 1.57 1.60 1.66 1.68 1.67 1.67 1.62 1.51 1.38 1.30 1.24 1.22 1.20 1.18 1.15 1.15 1.16 1.17 1.18 1.17 1.17 1.21 1.26 1.28 1.22 1.12
1.86 1.88 1.94 1.93 1.97 1.98 1.97 1.99 2.04 2.09 2.08 2.11 2.09 2.04 2.09 2.11 2.13 2.15 2.13 2.10 2.06 2.01 1.98 1.95 1.87 1.86 1.88 1.93 1.96 1.94 1.96 1.96 1.94 1.92 1.93 1.93 1.97 2.03 2.08 2.08 2.09 2.11 2.03 1.96 1.96 1.95 2.01 2.00 1.97 1.92 1.90 1.88 1.78 1.67 1.62 1.58 1.55 1.52 1.49 1.45 1.40 1.34 1.34 1.36 1.36 1.30 1.22 1.18 1.15 1.10 1.07 1.02 0.96 0.90 0.88 0.90 0.93 0.94 0.95 0.98 1.02 1.05 1.06 1.08 1.10
1.75 1.75 1.77 1.78 1.82 1.87 1.90 1.94 1.99 1.97 1.96 1.94 1.91 1.90 1.94 2.02 2.05 2.07 2.06 2.01 1.94 1.93 1.89 1.85 1.83 1.81 1.83 1.90 1.86 1.84 1.82 1.84 1.81 1.84 1.84 1.86 1.90 1.91 1.90 1.91 1.95 1.95 1.93 1.88 1.91 1.90 1.86 1.88 1.92 1.92 1.85 1.76 1.66 1.58 1.51 1.49 1.42 1.35 1.28 1.25 1.21 1.23 1.27 1.26 1.20 1.12 1.05 0.99 0.94 0.91 0.89 0.87 0.82 0.77 0.76 0.81 0.80 0.81 0.83 0.86 0.87 0.89 0.87 0.86 0.87
1.58 1.54 1.55 1.60 1.64 1.70 1.76 1.79 1.82 1.82 1.84 1.87 1.86 1.88 1.89 1.90 1.89 1.97 1.99 1.96 1.93 1.88 1.87 1.83 1.80 1.78 1.79 1.79 1.78 1.78 1.77 1.76 1.75 1.76 1.71 1.67 1.69 1.74 1.77 1.78 1.76 1.70 1.66 1.69 1.67 1.63 1.71 1.77 1.71 1.66 1.60 1.53 1.45 1.39 1.35 1.27 1.21 1.17 1.14 1.12 1.11 1.04 1.08 0.99 0.94 0.89 0.82 0.80 0.79 0.78 0.77 0.76 0.74 0.73 0.74 0.71 0.69 0.68 0.67 0.69 0.71 0.70 0.71 0.69 0.70
1.45 1.48 1.51 1.52 1.53 1.52 1.52 1.54 1.51 1.56 1.63 1.70 1.75 1.78 1.76 1.78 1.79 1.81 1.79 1.75 1.74 1.71 1.72 1.75 1.75 1.79 1.79 1.79 1.75 1.72 1.72 1.70 1.67 1.66 1.64 1.60 1.56 1.54 1.55 1.60 1.61 1.58 1.54 1.48 1.41 1.38 1.38 1.38 1.38 1.32 1.28 1.24 1.16 1.07 1.06 1.10 1.10 1.09 1.08 1.05 1.02 0.96 0.95 0.89 0.85 0.80 0.76 0.75 0.74 0.72 0.73 0.74 0.71 0.70 0.69 0.65 0.59 0.57 0.58 0.57 0.55 0.54 0.56 0.53 0.49
1.22 1.26 1.31 1.37 1.41 1.47 1.46 1.46 1.50 1.58 1.60 1.61 1.61 1.56 1.57 1.62 1.68 1.70 1.70 1.64 1.60 1.59 1.61 1.63 1.66 1.67 1.64 1.67 1.66 1.63 1.62 1.60 1.58 1.53 1.50 1.48 1.45 1.43 1.38 1.34 1.34 1.30 1.26 1.23 1.20 1.16 1.16 1.11 1.04 1.02 0.99 0.93 0.91 0.91 0.93 0.95 0.95 0.96 0.97 0.97 0.96 0.94 0.93 0.89 0.85 0.80 0.77 0.75 0.74 0.75 0.76 0.75 0.74 0.68 0.62 0.58 0.56 0.59 0.61 0.58 0.54 0.54 0.56 0.55 0.49
1.07 1.13 1.19 1.24 1.29 1.35 1.39 1.45 1.45 1.49 1.53 1.54 1.50 1.47 1.46 1.44 1.44 1.47 1.46 1.45 1.42 1.44 1.50 1.53 1.57 1.58 1.55 1.60 1.60 1.57 1.51 1.48 1.46 1.40 1.31 1.26 1.26 1.27 1.26 1.21 1.16 1.09 1.01 0.95 0.90 0.86 0.87 0.90 0.88 0.90 0.87 0.85 0.85 0.86 0.87 0.89 0.90 0.91 0.91 0.91 0.91 0.92 0.92 0.90 0.88 0.85 0.80 0.78 0.76 0.76 0.76 0.75 0.70 0.67 0.63 0.60 0.60 0.62 0.64 0.60 0.57 0.55 0.57 0.54 0.47
0.87 0.93 0.97 1.05 1.12 1.21 1.28 1.26 1.34 1.39 1.41 1.44 1.44 1.40 1.34 1.30 1.27 1.28 1.34 1.35 1.32 1.30 1.28 1.39 1.46 1.49 1.48 1.48 1.47 1.42 1.38 1.31 1.30 1.31 1.26 1.21 1.14 1.08 1.04 1.00 0.96 0.90 0.84 0.76 0.70 0.68 0.75 0.83 0.83 0.84 0.84 0.83 0.84 0.85 0.87 0.88 0.89 0.90 0.89 0.87 0.86 0.85 0.83 0.81 0.77 0.76 0.77 0.75 0.72 0.71 0.69 0.68 0.65 0.64 0.61 0.59 0.61 0.62 0.65 0.60 0.61 0.57 0.56 0.55 0.49
0.77 0.77 0.82 0.87 0.93 0.99 1.05 1.12 1.17 1.22 1.26 1.28 1.27 1.24 1.29 1.28 1.27 1.25 1.26 1.32 1.36 1.37 1.39 1.40 1.46 1.51 1.48 1.47 1.44 1.36 1.30 1.30 1.31 1.25 1.19 1.13 1.07 1.02 0.97 0.91 0.85 0.77 0.72 0.68 0.67 0.63 0.72 0.81 0.83 0.83 0.82 0.82 0.82 0.84 0.85 0.86 0.86 0.86 0.87 0.87 0.86 0.84 0.83 0.81 0.79 0.77 0.77 0.75 0.73 0.70 0.68 0.66 0.60 0.60 0.58 0.57 0.59 0.61 0.63 0.61 0.58 0.59 0.53 0.50 0.46
0.80 0.79 0.82 0.85 0.88 0.92 0.96 0.98 1.02 1.05 1.09 1.14 1.21 1.21 1.16 1.20 1.22 1.21 1.21 1.22 1.23 1.23 1.25 1.28 1.32 1.37 1.38 1.32 1.36 1.36 1.34 1.30 1.23 1.17 1.12 1.08 1.03 0.97 0.91 0.85 0.79 0.73 0.69 0.65 0.63 0.61 0.69 0.77 0.80 0.82 0.83 0.83 0.83 0.82 0.83 0.82 0.82 0.82 0.83 0.84 0.85 0.84 0.83 0.81 0.80 0.79 0.77 0.75 0.74 0.71 0.68 0.64 0.60 0.61 0.59 0.59 0.58 0.57 0.57 0.58 0.57 0.55 0.51 0.49 0.46
0.80 0.81 0.85 0.90 0.95 0.94 0.93 0.93 0.95 0.94 0.95 0.98 1.01 1.01 1.03 1.07 1.10 1.14 1.14 1.14 1.15 1.14 1.13 1.11 1.11 1.11 1.13 1.14 1.14 1.16 1.20 1.19 1.14 1.09 1.03 0.98 0.92 0.86 0.81 0.77 0.73 0.71 0.69 0.71 0.68 0.66 0.74 0.77 0.78 0.78 0.80 0.79 0.81 0.82 0.81 0.78 0.78 0.78 0.78 0.78 0.78 0.81 0.80 0.78 0.79 0.77 0.74 0.71 0.68 0.66 0.64 0.62 0.62 0.62 0.61 0.60 0.59 0.56 0.55 0.54 0.53 0.52 0.51 0.51 0.50
0.89 0.86 0.87 0.90 0.94 0.95 0.93 0.91 0.90 0.90 0.88 0.89 0.89 0.89 0.88 0.88 0.88 0.91 0.98 1.00 0.99 0.98 0.98 0.97 0.96 0.95 0.94 0.95 0.98 0.98 0.99 0.99 0.97 0.94 0.90 0.87 0.84 0.81 0.79 0.77 0.75 0.74 0.74 0.75 0.72 0.71 0.74 0.75 0.75 0.77 0.77 0.76 0.78 0.78 0.77 0.76 0.74 0.73 0.72 0.71 0.70 0.71 0.73 0.75 0.75 0.73 0.72 0.71 0.69 0.66 0.64 0.63 0.63 0.62 0.61 0.60 0.58 0.55 0.55 0.53 0.53 0.52 0.50 0.48 0.47
0.92 0.92 0.89 0.88 0.91 0.92 0.94 0.94 0.94 0.93 0.93 0.93 0.92 0.90 0.88 0.87 0.85 0.82 0.77 0.76 0.80 0.87 0.93 0.95 0.96 0.95 0.93 0.92 0.90 0.89 0.88 0.87 0.86 0.86 0.85 0.84 0.83 0.81 0.78 0.78 0.81 0.86 0.85 0.79 0.78 0.77 0.77 0.75 0.75 0.75 0.75 0.76 0.76 0.75 0.74 0.73 0.73 0.72 0.71 0.70 0.71 0.73 0.74 0.76 0.73 0.70 0.70 0.68 0.65 0.63 0.62 0.62 0.62 0.59 0.58 0.57 0.57 0.56 0.53 0.52 0.51 0.48 0.46 0.46 0.44
0.96 0.96 0.92 0.91 0.90 0.89 0.92 0.95 0.95 0.96 0.96 0.96 0.96 0.96 0.93 0.92 0.89 0.82 0.78 0.75 0.73 0.72 0.74 0.81 0.88 0.91 0.89 0.88 0.86 0.85 0.84 0.84 0.84 0.85 0.84 0.84 0.83 0.81 0.81 0.79 0.79 0.81 0.83 0.84 0.85 0.82 0.78 0.76 0.75 0.77 0.76 0.75 0.75 0.74 0.73 0.73 0.74 0.74 0.73 0.74 0.74 0.75 0.75 0.73 0.70 0.69 0.67 0.65 0.63 0.61 0.60 0.59 0.58 0.58 0.56 0.53 0.52 0.51 0.50 0.49 0.48 0.47 0.45 0.44 0.43
0.96 0.96 0.96 0.93 0.94 0.95 0.94 0.94 0.96 0.96 0.96 0.96 0.97 0.97 0.99 0.97 0.91 0.86 0.85 0.85 0.82 0.80 0.80 0.82 0.84 0.85 0.86 0.86 0.87 0.87 0.86 0.84 0.83 0.83 0.83 0.84 0.83 0.83 0.77 0.76 0.77 0.78 0.78 0.80 0.81 0.82 0.82 0.80 0.79 0.78 0.78 0.78 0.78 0.78 0.78 0.77 0.76 0.76 0.77 0.76 0.74 0.73 0.72 0.70 0.68 0.66 0.64 0.63 0.61 0.60 0.59 0.59 0.58 0.57 0.56 0.54 0.52 0.50 0.49 0.48 0.46 0.45 0.44 0.43 0.42
0.95 0.95 0.93 0.91 0.92 0.95 0.94 0.92 0.92 0.94 0.96 0.97 0.98 0.97 0.96 0.95 0.95 0.94 0.93 0.90 0.89 0.89 0.87 0.87 0.89 0.88 0.89 0.90 0.89 0.88 0.88 0.87 0.86 0.86 0.85 0.85 0.86 0.86 0.83 0.82 0.81 0.81 0.80 0.81 0.82 0.82 0.81 0.82 0.82 0.82 0.81 0.80 0.79 0.79 0.78 0.77 0.77 0.77 0.77 0.76 0.74 0.72 0.70 0.69 0.67 0.65 0.62 0.60 0.59 0.58 0.57 0.57 0.57 0.56 0.54 0.52 0.51 0.51 0.50 0.48 0.46 0.45 0.43 0.42 0.41
0.88 0.90 0.90 0.91 0.91 0.92 0.91 0.91 0.92 0.91 0.90 0.90 0.92 0.93 0.92 0.92 0.92 0.91 0.92 0.94 0.98 0.99 0.97 0.95 0.93 0.89 0.85 0.87 0.95 0.91 0.90 0.90 0.89 0.88 0.88 0.86 0.85 0.84 0.85 0.84 0.84 0.82 0.81 0.82 0.82 0.81 0.80 0.81 0.81 0.80 0.80 0.79 0.78 0.78 0.78 0.77 0.77 0.76 0.74 0.73 0.72 0.71 0.70 0.68 0.66 0.64 0.62 0.60 0.59 0.58 0.57 0.56 0.56 0.56 0.55 0.52 0.50 0.49 0.48 0.47 0.44 0.42 0.41 0.41 0.40
0.89 0.87 0.87 0.89 0.88 0.86 0.85 0.83 0.81 0.79 0.79 0.79 0.80 0.83 0.85 0.88 0.90 0.90 0.91 0.91 0.92 0.92 0.95 0.97 0.97 0.95 0.96 0.98 0.96 0.98 0.94 0.88 0.86 0.83 0.83 0.84 0.84 0.84 0.83 0.82 0.81 0.81 0.81 0.81 0.81 0.80 0.79 0.79 0.80 0.80 0.80 0.80 0.79 0.78 0.77 0.76 0.75 0.74 0.73 0.71 0.69 0.68 0.67 0.66 0.64 0.63 0.61 0.59 0.58 0.57 0.56 0.55 0.54 0.54 0.53 0.51 0.49 0.48 0.46 0.44 0.42 0.41 0.39 0.38 0.39
0.88 0.86 0.86 0.86 0.86 0.86 0.86 0.83 0.80 0.77 0.76 0.73 0.72 0.73 0.76 0.78 0.80 0.82 0.83 0.84 0.86 0.90 0.91 0.91 0.93 0.95 1.01 1.04 1.03 1.03 0.97 0.95 0.93 0.90 0.86 0.85 0.84 0.85 0.86 0.84 0.83 0.82 0.80 0.80 0.80 0.80 0.79 0.79 0.79 0.78 0.78 0.78 0.78 0.77 0.77 0.76 0.74 0.74 0.73 0.70 0.68 0.66 0.66 0.65 0.64 0.63 0.61 0.60 0.58 0.57 0.55 0.54 0.54 0.54 0.53 0.51 0.50 0.48 0.45 0.43 0.41 0.40 0.39 0.39 0.39
0.85 0.85 0.85 0.86 0.87 0.87 0.87 0.85 0.82 0.80 0.81 0.81 0.80 0.79 0.78 0.79 0.80 0.79 0.80 0.81 0.83 0.86 0.89 0.92 0.96 1.00 1.04 1.05 1.05 1.05 1.00 0.94 0.92 0.91 0.89 0.87 0.86 0.85 0.85 0.85 0.84 0.83 0.83 0.82 0.82 0.82 0.81 0.81 0.80 0.80 0.79 0.79 0.79 0.78 0.77 0.76 0.76 0.75 0.73 0.72 0.70 0.68 0.67 0.66 0.66 0.65 0.63 0.61 0.59 0.58 0.57 0.56 0.55 0.53 0.51 0.51 0.51 0.48 0.46 0.44 0.42 0.40 0.40 0.40 0.40
0.87 0.86 0.86 0.86 0.87 0.87 0.84 0.82 0.81 0.83 0.84 0.86 0.85 0.84 0.82 0.82 0.82 0.82 0.82 0.80 0.80 0.82 0.84 0.88 0.92 0.96 0.99 1.02 1.01 0.98 0.93 0.91 0.90 0.89 0.89 0.89 0.88 0.87 0.86 0.85 0.84 0.83 0.82 0.81 0.81 0.80 0.80 0.79 0.79 0.79 0.78 0.78 0.77 0.76 0.75 0.74 0.73 0.72 0.71 0.69 0.68 0.66 0.65 0.64 0.64 0.63 0.61 0.60 0.58 0.57 0.56 0.55 0.54 0.52 0.51 0.50 0.47 0.44 0.42 0.41 0.40 0.40 0.39 0.39 0.40
0.94 0.92 0.90 0.89 0.86 0.83 0.82 0.82 0.82 0.82 0.83 0.84 0.85 0.86 0.85 0.85 0.85 0.86 0.86 0.86 0.84 0.83 0.83 0.84 0.86 0.89 0.89 0.90 0.90 0.90 0.89 0.89 0.87 0.86 0.86 0.86 0.85 0.84 0.83 0.83 0.83 0.84 0.83 0.83 0.83 0.81 0.79 0.78 0.77 0.77 0.76 0.76 0.75 0.74 0.72 0.72 0.71 0.70 0.68 0.67 0.65 0.64 0.63 0.62 0.60 0.59 0.58 0.57 0.56 0.55 0.54 0.52 0.51 0.49 0.47 0.45 0.43 0.42 0.41 0.40 0.39 0.39 0.39 0.39 0.40
0.97 0.96 0.94 0.92 0.89 0.87 0.87 0.85 0.82 0.82 0.84 0.84 0.86 0.86 0.86 0.85 0.85 0.85 0.84 0.84 0.85 0.85 0.85 0.85 0.85 0.84 0.85 0.86 0.87 0.86 0.85 0.86 0.85 0.85 0.84 0.83 0.83 0.82 0.82 0.82 0.82 0.82 0.82 0.82 0.82 0.81 0.80 0.78 0.77 0.77 0.77 0.76 0.76 0.75 0.74 0.73 0.72 0.69 0.67 0.66 0.64 0.63 0.62 0.61 0.59 0.58 0.57 0.56 0.55 0.53 0.52 0.51 0.49 0.47 0.45 0.44 0.43 0.41 0.40 0.40 0.39 0.39 0.39 0.40 0.40
0.91 0.89 0.89 0.90 0.90 0.89 0.87 0.86 0.86 0.86 0.87 0.87 0.86 0.87 0.87 0.86 0.85 0.84 0.83 0.83 0.84 0.86 0.87 0.87 0.87 0.86 0.84 0.84 0.85 0.84 0.84 0.84 0.84 0.83 0.82 0.82 0.81 0.82 0.82 0.82 0.82 0.81 0.81 0.82 0.82 0.82 0.80 0.79 0.78 0.77 0.76 0.75 0.75 0.74 0.72 0.71 0.70 0.67 0.66 0.64 0.62 0.61 0.61 0.60 0.59 0.59 0.57 0.55 0.53 0.51 0.50 0.48 0.46 0.45 0.45 0.44 0.43 0.42 0.41 0.41 0.41 0.41 0.41 0.41 0.40
0.87 0.87 0.88 0.90 0.90 0.89 0.86 0.84 0.85 0.85 0.86 0.86 0.86 0.85 0.85 0.85 0.84 0.83 0.82 0.81 0.81 0.83 0.85 0.87 0.88 0.87 0.85 0.83 0.82 0.82 0.81 0.81 0.81 0.81 0.81 0.80 0.80 0.79 0.79 0.79 0.80 0.80 0.80 0.80 0.79 0.79 0.78 0.77 0.75 0.74 0.73 0.72 0.71 0.70 0.70 0.68 0.67 0.66 0.65 0.64 0.62 0.61 0.60 0.59 0.59 0.57 0.56 0.54 0.52 0.50 0.49 0.48 0.47 0.46 0.45 0.44 0.43 0.43 0.42 0.42 0.42 0.43 0.42 0.42 0.42
0.76 0.77 0.78 0.79 0.80 0.82 0.85 0.87 0.87 0.87 0.86 0.85 0.83 0.80 0.80 0.81 0.82 0.85 0.85 0.84 0.83 0.82 0.83 0.85 0.85 0.84 0.84 0.82 0.81 0.79 0.79 0.78 0.77 0.77 0.76 0.75 0.75 0.75 0.75 0.75 0.75 0.75 0.76 0.76 0.76 0.75 0.74 0.72 0.71 0.70 0.69 0.68 0.68 0.67 0.66 0.67 0.66 0.65 0.64 0.64 0.63 0.62 0.61 0.60 0.59 0.57 0.56 0.55 0.53 0.51 0.50 0.48 0.47 0.46 0.45 0.44 0.44 0.44 0.44 0.43 0.43 0.43 0.43 0.43 0.44
0.70 0.71 0.73 0.75 0.77 0.75 0.76 0.78 0.79 0.81 0.82 0.81 0.80 0.80 0.79 0.80 0.81 0.82 0.83 0.83 0.82 0.84 0.85 0.85 0.85 0.85 0.84 0.83 0.82 0.80 0.79 0.77 0.75 0.73 0.71 0.69 0.70 0.70 0.70 0.70 0.69 0.69 0.69 0.69 0.69 0.69 0.69 0.69 0.69 0.68 0.67 0.66 0.65 0.64 0.64 0.64 0.64 0.62 0.61 0.61 0.61 0.60 0.60 0.59 0.58 0.58 0.57 0.56 0.55 0.53 0.51 0.49 0.48 0.47 0.46 0.46 0.45 0.45 0.44 0.43 0.44 0.44 0.45 0.45 0.46
0.65 0.66 0.66 0.66 0.68 0.70 0.73 0.77 0.79 0.80 0.80 0.80 0.80 0.81 0.82 0.82 0.82 0.85 0.85 0.82 0.82 0.82 0.85 0.84 0.84 0.83 0.82 0.81 0.79 0.77 0.75 0.72 0.70 0.69 0.69 0.68 0.69 0.69 0.70 0.70 0.69 0.68 0.67 0.66 0.66 0.66 0.66 0.65 0.64 0.63 0.61 0.61 0.61 0.61 0.62 0.62 0.61 0.61 0.61 0.61 0.62 0.61 0.60 0.59 0.57 0.56 0.56 0.54 0.53 0.52 0.51 0.49 0.47 0.46 0.46 0.46 0.46 0.45 0.44 0.45 0.45 0.46 0.46 0.47 0.46
0.63 0.65 0.66 0.68 0.69 0.70 0.72 0.73 0.74 0.74 0.75 0.76 0.75 0.75 0.77 0.82 0.86 0.89 0.88 0.87 0.86 0.85 0.82 0.81 0.81 0.80 0.79 0.77 0.75 0.72 0.70 0.68 0.67 0.67 0.68 0.68 0.68 0.69 0.69 0.68 0.67 0.66 0.65 0.64 0.63 0.62 0.61 0.60 0.58 0.57 0.56 0.55 0.56 0.57 0.57 0.58 0.58 0.58 0.58 0.58 0.58 0.57 0.56 0.55 0.55 0.54 0.52 0.52 0.51 0.50 0.49 0.47 0.46 0.45 0.44 0.45 0.44 0.44 0.43 0.44 0.45 0.46 0.46 0.46 0.46
0.66 0.68 0.69 0.69 0.68 0.69 0.70 0.71 0.72 0.73 0.74 0.74 0.75 0.75 0.76 0.76 0.77 0.81 0.84 0.83 0.82 0.83 0.82 0.82 0.80 0.77 0.75 0.73 0.71 0.69 0.67 0.66 0.65 0.65 0.64 0.63 0.63 0.63 0.63 0.63 0.63 0.62 0.62 0.61 0.60 0.59 0.58 0.58 0.57 0.56 0.54 0.54 0.54 0.54 0.54 0.53 0.53 0.53 0.53 0.53 0.52 0.51 0.51 0.51 0.50 0.50 0.50 0.50 0.50 0.49 0.47 0.46 0.44 0.43 0.43 0.43 0.44 0.44 0.44 0.45 0.46 0.46 0.46 0.44 0.42
Wind_Speed
18 17 17 17 16 16 16 15 15 14 14 13 13 12 12 12 12 11 11 10 10 10 10 10 10 9 9 9 9 8 8 8 7 7 7 7 6 6 6 5 5 4 4 4 4 4 4 4 4 4 5 5 5 5 5 5 5 5 5 5 5 5 5 5 6 7 8 8 8 8 8 9 9 9 9 9 10 11 11 10 10 10 10 10 11
18 18 18 17 17 17 16 16 15 15 14 14 13 13 12 12 12 12 11 11 11 10 10 10 10 10 10 10 9 9 8 8 8 8 7 7 7 6 6 6 5 5 5 4 4 4 4 4 4 4 4 4 4 4 5 5 5 5 5 5 5 5 5 5 5 6 7 7 7 8 8 9 9 9 10 10 10 10 10 10 10 9 9 10 10
19 19 18 18 18 17 17 17 16 16 15 15 14 14 13 13 12 12 12 11 11 11 11 11 10 10 10 10 10 9 9 8 8 8 8 8 7 7 6 6 6 6 5 5 5 5 5 4 4 4 4 4 5 5 5 5 5 5 5 5 5 5 5 5 6 6 7 7 7 8 8 9 9 10 10 10 10 10 9 9 9 9 9 9 10
19 19 19 19 18 18 18 17 17 17 16 16 15 15 14 14 13 13 12 12 12 11 11 11 11 11 10 10 10 10 10 9 9 8 8 8 8 7 7 7 7 7 6 6 5 5 5 5 5 5 5 5 5 5 5 5 5 5 5 5 5 6 6 6 6 6 7 7 8 8 9 9 9 9 9 9 10 9 9 9 9 9 9 10 11
20 19 20 19 19 19 18 18 18 18 17 16 16 15 15 14 14 13 13 13 12 12 12 12 11 11 11 11 11 11 10 10 9 9 9 9 8 8 8 7 7 7 7 7 6 6 6 6 6 5 5 5 5 5 6 6 6 6 6 6 6 6 7 7 7 7 7 8 8 9 10 10 9 9 9 10 10 10 10 10 10 10 10 11 13
20 20 20 20 20 19 19 18 18 18 18 17 17 16 16 15 15 15 14 14 13 13 13 12 12 12 12 11 11 11 11 11 10 10 10 9 9 9 9 8 8 8 8 8 8 7 7 7 6 6 6 7 7 8 8 7 7 7 7 7 7 7 7 7 7 8 8 9 9 10 11 10 10 10 10 11 11 11 11 11 11 11 12 13 14
21 21 20 20 20 20 20 19 19 19 18 18 18 17 17 16 16 15 15 15 15 14 14 13 13 13 13 12 12 12 12 12 12 11 11 11 10 10 10 10 9 9 9 9 9 8 8 8 8 8 9 9 10 10 10 10 9 9 8 8 8 8 8 9 8 9 9 10 11 11 11 11 11 11 11 11 11 11 11 12 12 12 13 14 15
21 21 21 20 20 20 20 20 19 19 19 18 18 18 17 17 17 16 16 16 15 15 15 15 14 14 14 14 13 13 12 12 13 12 12 12 12 11 11 11 11 11 11 10 10 10 10 10 10 10 10 10 11 10 10 10 10 11 11 10 9 9 10 10 10 10 11 12 12 12 12 12 12 12 12 12 12 12 12 12 13 13 14 14 15
21 21 21 21 21 21 20 20 20 19 19 19 19 19 18 18 18 17 17 17 16 16 16 16 15 15 15 15 14 14 14 13 13 13 13 13 13 13 12 12 12 12 12 11 11 11 11 11 11 11 11 11 11 11 11 11 11 12 12 12 11 11 11 11 11 12 12 12 13 13 13 14 14 14 14 13 13 13 13 14 14 15 15 15 16
22 22 22 22 21 21 21 20 20 20 20 20 20 20 20 19 19 19 19 18 17 17 17 17 16 16 16 16 16 16 15 15 14 14 14 14 14 14 14 14 14 13 13 12 12 12 12 12 12 12 12 12 12 12 12 12 12 12 13 13 13 13 13 12 12 12 13 13 13 14 14 14 14 14 14 14 14 14 15 15 16 16 16 16 16
23 22 22 22 22 21 21 21 21 20 20 20 20 20 20 20 20 20 20 20 19 18 18 18 18 17 17 17 17 17 16 15 15 15 15 15 15 14 14 14 14 14 14 13 13 13 13 13 13 13 13 13 12 12 12 12 12 12 13 13 14 14 14 14 14 13 13 14 14 14 14 15 15 15 15 15 14 15 16 16 16 16 17 17 17
23 23 23 22 23 22 22 21 21 21 21 20 20 20 20 20 20 20 21 21 20 20 19 19 19 18 18 17 17 17 17 16 16 16 16 16 16 16 15 15 15 15 15 15 15 15 15 14 14 14 14 14 14 14 14 14 14 13 13 14 14 14 15 15 15 15 15 15 15 15 15 16 16 15 15 15 16 16 17 17 17 17 17 18 18
22 23 23 22 23 23 22 22 22 22 22 21 20 20 20 20 20 20 20 21 21 21 20 20 19 19 19 18 18 18 18 18 18 18 17 17 17 17 17 17 17 16 16 16 16 16 16 16 16 16 16 15 15 15 15 15 15 15 15 15 16 16 16 17 17 17 17 17 17 16 16 16 17 17 17 17 17 18 18 18 18 18 18 19 19
22 22 22 22 22 22 22 22 21 22 22 22 22 21 21 21 21 21 20 20 21 21 21 20 20 20 20 19 19 19 19 19 19 19 19 19 18 19 19 19 18 18 18 18 18 18 18 17 17 17 18 18 18 18 18 18 18 17 17 17 17 17 17 17 17 17 17 17 17 17 18 18 18 18 18 18 19 19 19 19 19 19 19 19 19
23 23 23 23 23 23 23 22 22 21 21 21 22 22 22 21 21 21 21 20 21 21 21 21 21 20 20 20 20 20 20 20 20 20 20 20 20 20 20 20 20 19 19 19 20 20 20 19 19 19 19 19 20 20 20 20 20 19 19 19 18 18 18 18 18 18 18 18 18 19 19 19 19 20 20 20 20 20 20 20 20 19 19 19 19
23 24 23 23 23 24 24 23 23 23 23 22 22 22 22 23 22 22 22 22 22 21 21 21 21 21 21 21 21 21 21 21 21 20 20 20 20 20 20 20 20 21 21 21 21 21 21 21 21 20 20 21 21 21 21 21 21 20 20 20 20 19 19 19 19 19 19 20 20 20 21 21 21 21 21 21 20 20 20 20 19 19 19 19 18
23 24 24 24 24 24 24 24 24 25 25 25 25 24 24 24 24 24 23 23 23 23 23 22 22 21 21 22 22 22 22 22 22 22 21 21 21 21 21 21 21 21 21 21 22 22 22 21 21 21 21 21 21 21 21 21 21 21 21 21 20 20 20 20 20 21 21 21 21 22 22 22 21 21 21 21 20 20 20 19 19 19 18 18 18
22 24 25 25 25 25 25 25 25 25 26 26 27 27 26 26 26 26 25 25 24 24 24 23 23 22 22 22 23 23 23 23 23 23 23 23 22 22 22 22 22 22 22 22 22 23 23 22 22 22 22 22 22 22 22 22 21 21 21 21 21 21 21 21 22 22 22 21 21 21 21 20 20 20 20 19 19 19 19 19 19 18 18 18 18
19 21 23 25 27 27 26 25 25 25 26 27 28 29 29 28 28 27 26 26 25 25 25 25 24 24 24 24 24 24 24 24 24 24 24 24 24 24 23 23 23 23 24 24 24 24 24 24 23 23 23 23 23 23 22 22 22 21 21 21 21 21 21 22 22 21 21 21 20 20 20 19 18 18 18 18 18 18 18 18 18 17 18 18 17
19 19 20 21 23 24 24 24 23 24 25 27 29 30 30 29 29 28 27 26 26 26 26 26 26 26 26 25 25 25 25 25 25 25 25 25 25 25 25 25 25 25 25 25 25 25 25 25 24 24 23 23 23 22 22 21 21 21 21 21 21 21 21 21 21 21 20 20 19 19 18 18 17 17 17 17 17 17 17 17 16 16 17 17 17
18 19 19 19 19 20 20 21 21 21 21 23 25 28 29 29 28 28 27 27 26 26 26 26 26 26 26 26 25 25 25 25 25 26 26 26 27 27 26 26 26 26 26 25 24 23 23 23 23 22 21 21 21 21 21 20 20 20 20 20 20 20 20 20 20 19 19 18 18 17 17 17 17 17 17 18 18 17 17 16 16 16 16 16 16
16 16 17 17 18 19 19 19 19 19 19 18 19 21 23 25 26 26 27 26 26 26 25 25 25 25 25 25 25 24 24 24 24 24 25 25 25 25 26 25 25 25 24 22 21 20 20 20 20 20 19 19 19 19 19 19 19 18 18 18 18 18 18 18 18 18 18 18 18 17 18 18 18 18 18 18 18 18 18 18 17 17 17 17 17
13 14 14 14 15 17 17 18 17 17 17 16 15 15 16 18 20 21 22 23 24 23 22 23 23 23 23 23 23 23 22 22 21 21 21 21 21 21 22 22 22 21 21 19 19 18 18 17 17 17 17 18 18 18 18 18 18 17 17 17 17 17 17 17 17 17 17 18 18 18 18 19 19 19 19 18 18 19 19 19 19 19 19 19 19
13 13 13 13 13 14 14 15 15 15 14 14 14 13 13 13 14 15 16 17 18 19 19 19 20 21 22 21 21 20 20 20 20 20 19 19 18 18 18 18 18 19 18 18 18 17 16 16 16 16 17 17 17 17 17 17 17 17 17 17 17 17 17 17 17 17 18 18 18 19 19 19 19 19 19 19 20 20 20 20 20 21 21 21 20
14 14 14 14 14 14 14 14 14 14 14 14 13 13 13 13 12 12 12 13 14 15 15 15 16 17 19 19 18 18 18 19 19 19 18 17 17 18 18 17 18 18 17 17 17 17 17 17 18 18 18 17 17 17 17 17 17 17 17 18 18 17 17 17 18 18 18 19 19 20 20 20 20 21 21 21 21 21 21 21 21 21 21 21 21
15 15 15 15 15 16 16 16 16 16 16 15 15 14 14 14 14 13 13 13 13 14 14 14 13 14 15 16 17 17 17 18 18 18 18 18 18 18 18 18 18 18 18 18 18 18 18 19 19 19 18 18 18 17 17 17 17 17 18 18 18 18 18 18 19 19 19 20 20 21 21 22 22 22 22 22 22 22 22 22 22 22 21 21 21
16 16 15 15 16 17 17 17 17 17 17 17 17 16 15 16 16 16 15 15 15 15 15 15 14 15 15 15 16 16 15 16 16 16 17 17 18 19 19 19 19 19 19 20 20 20 20 19 19 19 18 18 18 18 18 18 18 18 18 19 19 19 20 20 20 20 20 20 21 21 22 23 23 23 24 24 23 23 23 23 23 22 22 22 22
16 16 15 15 15 16 17 17 17 16 16 16 16 16 16 17 17 17 17 18 17 17 17 16 17 17 17 17 17 17 16 16 16 16 16 17 17 18 18 19 19 19 19 20 21 21 21 20 20 20 19 18 18 18 19 19 19 19 19 20 20 21 21 21 21 21 22 22 22 22 23 24 24 25 25 25 24 24 24 24 23 23 23 22 22
16 16 16 15 15 15 16 17 17 16 16 15 16 16 16 17 17 18 18 18 18 18 18 18 18 18 18 19 20 20 19 18 18 18 18 18 18 18 18 19 19 19 20 21 21 21 21 21 21 21 21 20 20 20 20 20 20 20 21 21 22 22 22 23 23 23 23 24 24 24 25 25 25 25 25 25 25 25 25 24 24 24 24 23 23
16 16 16 16 16 16 16 16 17 17 16 16 17 16 16 16 17 17 18 18 18 18 18 18 19 19 19 20 21 21 21 21 20 20 20 20 20 20 20 21 21 22 22 22 22 22 22 22 22 22 22 22 22 22 22 22 22 22 22 23 23 24 24 24 25 25 26 26 26 26 27 27 27 26 26 25 25 25 25 25 25 25 25 25 25
17 16 16 16 16 16 17 17 17 17 17 18 18 18 18 18 17 17 18 18 18 19 19 19 20 20 20 21 21 22 22 22 22 22 22 22 22 23 23 24 24 24 24 24 23 23 23 23 23 23 22 22 23 23 24 24 24 24 24 24 25 25 25 26 26 27 27 27 27 27 28 27 27 26 26 25 26 26 26 26 26 26 26 26 27
18 18 17 17 17 17 18 18 18 18 19 19 20 20 20 20 20 19 19 19 19 19 20 20 21 21 21 22 22 22 23 23 23 24 24 24 25 25 25 25 25 25 25 24 24 24 24 24 24 23 23 23 23 24 24 25 25 25 25 26 26 26 27 27 28 28 28 28 28 28 27 27 27 26 26 26 26 27 27 27 27 28 28 28 29
20 20 20 19 19 19 19 19 20 20 20 21 21 21 21 21 21 21 21 21 20 20 20 20 21 21 22 22 23 23 24 24 25 25 26 26 26 26 26 26 26 26 26 25 25 25 25 25 25 24 24 24 25 25 25 25 26 26 26 26 27 27 27 28 28 28 28 28 28 28 27 27 27 27 27 27 28 28 28 29 29 30 30 30 31
21 21 21 21 21 21 21 21 21 21 22 22 22 23 23 22 22 22 22 22 22 21 21 21 21 22 22 23 23 23 24 24 25 26 26 26 27 27 27 27 26 27 27 27 26 26 26 26 26 26 26 26 26 27 27 27 27 28 28 28 29 29 29 29 29 29 28 28 28 28 28 28 28 29 29 29 29 30 30 31 31 32 32 32 33
23 22 22 22 23 23 23 22 22 22 23 23 24 24 24 24 24 24 24 23 23 23 23 23 23 23 23 23 23 23 24 24 24 25 26 26 27 27 27 27 27 27 27 27 27 27 27 27 27 27 28 28 28 29 29 29 30 30 30 31 31 31 31 31 30 30 29 29 29 29 29 30 30 30 31 31 31 32 32 33 33 33 33 34 34
25 25 25 24 24 25 25 24 24 24 24 24 24 25 25 25 26 26 25 25 25 25 25 25 24 25 25 25 25 25 25 25 25 25 26 26 27 27 27 27 27 27 27 28 28 28 28 29 29 29 29 30 30 30 31 31 31 32 32 32 32 32 32 32 32 31 31 31 31 31 31 32 32 32 33 33 33 33 33 34 34 35 35 35 36
27 27 27 27 27 27 27 27 27 27 27 27 27 27 27 27 27 27 27 27 27 27 27 27 26 26 26 26 26 27 27 28 28 28 28 28 28 28 28 28 28 28 28 29 29 29 29 30 30 31 31 31 32 32 32 32 33 33 33 33 33 33 33 32 32 32 32 32 32 33 33 33 34 34 34 34 34 35 35 36 36 37 37 37 37
27 27 27 28 28 28 28 28 28 28 29 29 29 29 29 29 29 29 29 29 29 29 30 30 29 29 29 29 29 29 29 29 29 29 30 30 30 30 30 30 30 30 30 30 31 31 31 31 32 32 33 33 33 33 33 34 34 34 34 34 34 34 34 34 34 34 34 34 34 34 34 35 35 35 35 36 36 36 37 37 38 38 38 38 38
27 28 27 27 27 28 28 28 28 28 29 29 29 30 30 30 30 30 30 30 30 30 31 31 32 32 32 31 31 31 31 31 31 31 31 31 32 32 32 32 32 32 32 32 32 32 32 33 33 33 34 34 34 34 35 35 35 35 35 35 35 35 35 35 35 35 35 35 35 36 36 36 36 36 37 37 37 38 38 39 39 39 39 39 39
29 29 29 29 29 29 29 29 29 29 29 29 29 30 30 31 31 31 31 31 31 31 31 32 32 33 32 32 32 32 32 32 32 32 32 32 33 33 33 34 34 34 34 34 34 34 34 34 34 35 35 35 35 35 36 36 36 36 36 36 36 36 36 36 36 36 36 36 37 37 37 37 37 38 38 38 39 39 39 40 40 40 40 40 40
30 31 31 31 31 31 31 31 31 31 30 30 30 30 31 31 31 31 31 31 31 32 32 33 33 33 33 33 33 33 33 33 33 33 33 33 34 34 34 35 35 35 35 35 35 35 36 36 36 36 36 36 36 37 37 37 37 37 37 37 37 37 37 37 37 37 37 38 38 38 38 38 38 38 39 39 40 40 40 40 40 40 40 40 40
31 31 32 32 32 32 32 32 32 32 31 31 31 31 31 32 32 32 32 32 32 33 33 34 34 34 34 34 34 34 34 34 34 34 35 35 35 35 35 36 36 36 36 36 36 36 37 37 37 37 37 37 38 38 38 38 38 38 38 38 38 38 38 38 38 38 38 38 39 39 39 39 39 40 40 41 41 41 41 41 41 40 40 41 41
31 31 32 32 33 33 33 33 33 33 32 32 32 32 32 32 33 33 33 33 34 34 34 34 35 35 35 35 35 35 35 36 35 35 35 35 35 35 36 36 36 37 37 37 37 37 37 37 37 37 38 38 38 38 38 39 39 39 39 39 39 39 39 39 39 39 39 40 40 40 40 40 41 41 42 41 41 41 41 41 41 41 41 41 41
30 31 32 33 33 34 34 34 34 34 34 34 33 33 33 33 34 34 35 35 35 35 35 35 35 35 36 36 36 36 36 36 36 36 36 36 36 36 36 37 37 37 38 38 38 37 38 38 38 38 38 38 38 39 39 39 39 39 40 40 40 40 40 40 40 41 41 41 41 41 41 42 42 42 41 41 41 40 40 40 41 41 41 41 41
31 31 32 32 33 34 34 34 34 34 35 35 35 34 34 34 34 35 35 35 35 36 36 36 36 36 36 36 37 37 37 36 36 36 36 36 36 37 37 38 38 38 38 38 38 38 38 38 38 39 39 39 39 40 40 40 40 40 40 40 40 41 41 41 41 41 41 41 41 41 42 42 42 41 41 41 41 41 41 41 41 41 41 41 41
31 32 32 32 33 33 34 34 34 34 34 35 35 35 35 35 34 34 34 35 35 36 36 37 37 37 37 37 37 37 37 37 37 37 37 37 37 37 37 37 37 37 37 37 37 37 38 38 39 39 39 40 40 40 40 40 40 40 40 40 40 40 40 40 40 40 40 41 41 41 42 42 42 42 42 41 41 41 41 41 42 42 42 42 42
31 32 32 33 34 34 33 33 33 33 34 34 34 35 35 35 34 34 34 34 34 35 36 36 37 37 37 36 37 37 37 37 38 38 37 37 37 37 37 37 37 37 37 37 37 37 38 38 38 39 39 39 40 39 39 39 39 39 39 40 40 40 40 40 40 40 41 41 41 42 42 42 42 42 42 42 42 42 42 42 42 42 42 42 42
30 31 31 32 32 32 33 33 33 33 33 33 33 33 34 34 34 35 35 34 34 34 34 35 35 36 36 36 36 37 37 37 37 37 37 37 37 37 37 37 37 37 37 37 37 37 38 38 39 39 39 40 40 39 39 39 39 39 39 39 39 39 39 40 40 40 41 41 42 42 43 43 43 43 43 42 42 43 43 43 43 43 42 42 43
30 30 30 30 31 31 31 32 32 32 33 33 32 32 31 31 31 32 33 34 34 34 35 35 35 36 36 36 37 36 36 36 36 35 35 35 35 36 36 36 36 36 37 37 38 38 38 39 39 40 40 40 40 40 40 39 39 39 39 39 39 39 40 40 41 41 42 42 42 43 43 43 43 43 43 43 43 43 43 43 43 43 42 43 43
30 30 30 31 31 31 32 32 33 33 33 33 33 33 33 32 32 32 32 33 33 34 35 36 36 36 36 36 36 35 35 35 35 35 35 35 35 35 35 35 36 36 37 37 37 37 38 38 38 39 39 39 39 39 39 39 39 39 39 40 40 41 41 42 42 42 43 43 43 43 43 43 43 43 43 43 43 43 43 43 42 42 42 43 43
31 31 31 31 31 31 32 32 33 33 33 34 34 35 35 36 36 36 36 35 34 34 34 34 34 34 34 34 34 34 34 35 35 35 35 35 35 35 35 35 36 36 37 37 37 38 38 38 38 38 38 38 38 39 39 40 40 40 40 41 41 42 42 42 43 43 43 43 43 44 44 44 43 43 43 43 43 42 42 42 42 42 42 42 42
Wind_Direction
202 203 203 202 202 201 202 202 202 202 202 202 203 203 204 203 203 204 204 204 203 204 204 203 202 202 201 202 203 203 205 206 206 206 207 209 210 212 215 217 222 227 231 235 235 238 247 253 256 261 268 275 279 281 281 281 282 287 293 298 300 302 308 312 312 314 320 325 330 333 336 336 335 336 337 337 337 338 336 335 334 333 332 334 338
204 205 206 206 206 205 205 205 205 206 206 207 207 207 208 207 207 207 207 207 206 205 205 204 205 206 207 207 207 207 208 209 209 210 211 214 216 218 220 222 225 228 231 236 239 243 251 259 264 267 273 277 281 284 284 282 283 288 295 298 299 299 301 307 313 318 322 327 332 334 336 338 336 336 337 336 337 338 337 336 336 335 335 337 340
206 207 208 209 209 209 209 208 208 209 210 210 210 210 210 210 209 209 209 209 209 208 208 207 207 208 210 211 212 212 213 213 214 214 215 218 221 225 226 226 228 231 233 238 243 246 249 257 264 268 272 276 281 284 285 286 287 288 290 291 293 297 299 302 308 314 317 322 328 332 334 336 334 333 335 335 336 339 339 338 339 339 340 341 341
209 209 210 211 212 212 212 211 210 211 213 213 212 212 212 212 211 211 210 211 212 211 211 211 212 213 213 213 215 216 216 217 218 220 221 222 225 227 231 232 233 236 239 243 246 248 249 254 261 265 270 275 280 284 284 285 284 282 286 290 291 295 298 299 302 308 312 316 321 326 328 329 328 329 332 333 334 337 337 338 339 339 338 338 338
212 212 212 213 214 215 215 214 214 214 215 215 214 214 215 214 214 214 214 214 215 215 215 216 217 217 216 217 218 219 219 222 224 225 227 228 228 230 234 237 238 241 243 246 250 253 254 256 261 266 271 276 279 281 280 279 278 276 280 286 288 291 296 298 301 304 307 310 315 320 322 323 324 327 331 332 332 333 334 333 334 333 332 334 335
214 215 215 215 216 217 217 217 217 217 217 218 218 218 218 217 218 218 218 219 219 219 219 220 221 220 220 222 224 224 225 226 228 229 231 232 233 235 237 239 242 245 248 250 254 256 256 257 262 266 271 275 277 278 276 274 275 276 278 282 284 288 293 297 298 299 301 305 309 312 315 318 321 323 326 329 329 329 328 327 327 329 331 332 332
215 216 217 217 218 218 218 219 220 220 220 221 221 221 221 221 222 223 222 222 223 223 222 223 224 225 225 226 228 230 230 230 232 234 235 237 238 240 241 243 246 247 249 251 253 255 257 259 263 268 271 274 277 278 277 273 272 272 275 279 282 286 290 294 296 298 300 303 305 307 310 313 315 317 319 322 323 323 323 323 324 327 329 328 328
215 217 217 218 220 220 220 221 223 223 224 224 224 223 224 225 226 226 226 226 226 226 226 226 227 228 229 230 231 233 234 235 236 237 239 241 242 243 244 246 248 249 250 252 253 256 260 263 266 270 273 276 278 279 278 275 272 271 273 275 279 283 287 290 293 296 299 302 303 304 307 309 311 311 312 315 316 316 317 318 319 321 323 324 325
216 216 217 219 221 222 222 223 225 225 226 226 226 227 228 228 229 229 229 230 230 230 230 230 230 231 232 233 233 235 237 238 238 238 240 242 244 246 247 248 250 251 253 254 256 257 261 264 266 268 271 273 276 278 277 274 273 272 272 274 278 282 284 287 290 294 297 300 302 303 305 305 307 308 308 309 310 309 311 313 315 316 318 320 321
217 217 218 220 221 223 224 224 225 226 226 228 229 230 230 231 232 233 233 233 233 233 233 233 233 233 234 235 235 237 238 240 241 242 243 244 246 247 249 250 250 252 253 255 257 258 260 263 265 268 271 274 276 277 277 275 274 273 273 273 276 278 280 283 288 291 295 297 299 301 301 301 303 303 303 304 304 305 308 310 312 313 315 317 319
218 219 220 222 223 224 226 226 226 227 228 229 230 231 232 233 234 235 235 235 236 235 235 235 234 235 235 236 237 238 239 241 244 245 246 247 248 248 249 250 251 252 253 255 257 258 260 263 266 269 272 274 275 277 279 279 278 278 276 273 273 274 276 280 284 287 290 294 296 297 297 298 300 301 301 301 301 303 305 308 309 311 314 315 316
220 221 222 224 225 226 227 228 228 228 229 231 232 232 233 234 234 235 235 236 237 237 237 237 237 237 237 238 239 240 241 243 245 246 248 249 250 250 250 251 253 254 254 254 255 258 260 263 265 267 270 271 272 274 276 279 280 281 280 277 276 276 277 279 282 284 287 290 292 294 294 296 298 299 299 299 299 301 303 305 307 309 310 311 311
222 223 224 226 227 228 229 230 230 231 232 233 234 234 234 235 236 237 237 237 237 237 237 238 238 239 239 240 241 243 245 247 248 249 251 251 251 251 252 253 255 255 254 254 256 259 261 263 264 266 269 270 271 272 274 275 277 278 279 278 278 278 278 279 279 282 285 287 289 290 292 293 295 296 297 297 298 299 300 302 303 305 306 307 308
224 226 226 227 229 230 231 231 232 234 236 236 236 236 236 237 238 238 239 238 237 236 236 237 238 239 240 241 243 245 246 249 250 251 252 253 253 253 254 255 255 255 255 255 258 261 263 265 266 267 269 269 270 271 272 273 274 276 277 278 278 279 280 279 279 280 283 284 286 288 290 291 292 293 294 295 295 296 298 299 300 301 302 304 306
225 228 229 230 231 231 232 232 233 235 237 238 239 239 240 239 240 240 240 239 238 237 236 237 237 239 241 242 243 245 247 249 250 251 253 254 254 253 254 254 254 255 255 257 259 262 264 266 268 269 270 270 270 271 271 272 273 274 275 276 277 278 279 280 280 281 282 283 284 286 288 289 289 290 291 292 293 294 295 296 297 298 300 302 305
230 232 233 234 234 232 232 234 236 236 236 238 240 241 242 241 242 242 242 241 240 239 238 238 239 240 241 243 245 247 249 250 251 252 253 254 254 254 254 254 255 256 256 258 260 262 264 265 267 269 270 271 272 272 272 272 272 273 274 274 275 276 277 278 280 282 282 283 284 285 287 287 288 288 289 290 290 292 293 293 295 296 298 301 303
236 238 237 236 235 233 234 238 239 237 235 237 239 241 242 243 242 242 242 242 242 241 241 241 242 242 244 245 247 248 250 252 253 254 255 256 255 256 256 256 256 257 257 258 260 261 263 264 266 268 269 270 271 272 273 273 273 273 274 274 275 276 276 277 280 282 283 284 284 285 286 287 288 289 289 289 289 291 292 293 294 294 296 299 300
239 240 240 238 236 235 238 240 240 237 236 238 241 242 243 243 242 242 242 242 243 243 243 243 244 245 247 248 249 250 252 253 254 255 256 257 256 256 257 257 258 258 258 259 260 262 262 263 265 268 269 270 271 271 272 273 272 272 273 273 274 275 276 278 279 281 282 283 284 285 286 287 288 288 289 290 290 290 291 292 292 292 294 296 297
239 240 240 240 238 238 239 240 239 238 239 242 243 243 243 243 242 241 241 242 243 244 244 245 246 248 250 250 251 252 253 254 255 256 256 257 257 257 258 258 259 259 259 260 261 263 264 265 266 268 268 269 269 270 271 271 270 271 272 272 274 275 276 278 278 279 281 282 283 284 284 285 286 287 289 291 292 292 292 291 291 291 292 293 294
242 242 240 238 237 236 236 238 239 241 243 244 244 243 243 242 242 241 241 242 243 244 245 246 248 250 251 252 253 254 254 255 256 256 257 257 257 258 258 259 259 260 260 260 261 263 264 265 266 267 267 267 267 268 269 270 269 270 271 272 274 276 277 277 277 278 278 279 281 282 282 283 284 286 289 291 294 295 295 293 292 291 291 292 293
243 241 238 234 233 234 235 238 241 243 246 247 245 242 241 241 242 242 242 242 243 245 246 247 249 250 252 252 254 255 254 255 257 257 258 258 259 258 258 258 258 259 260 261 261 261 262 263 263 264 265 266 267 266 266 267 269 269 270 272 274 275 276 276 276 276 276 277 278 280 281 283 284 286 288 290 293 295 295 295 294 292 292 291 292
239 238 237 236 237 238 240 243 244 245 247 248 246 242 239 239 241 242 243 244 245 246 247 248 248 250 251 251 252 254 254 255 256 256 257 258 259 259 257 257 257 257 257 259 260 260 261 262 261 260 261 264 266 265 263 265 267 269 270 271 273 274 275 275 275 275 275 275 277 279 281 284 285 286 287 289 291 292 292 293 293 292 290 289 289
237 236 237 239 240 241 242 242 242 244 246 245 244 243 240 240 241 243 243 244 244 245 246 246 247 248 249 250 251 252 252 253 253 254 256 257 257 257 254 253 254 253 253 255 256 258 261 261 259 258 259 262 265 265 263 263 265 266 267 269 271 273 273 273 274 275 275 276 278 280 282 284 284 285 287 288 289 290 291 292 292 291 290 289 289
242 241 241 242 242 240 239 237 237 240 243 242 241 242 242 242 243 242 241 241 240 241 243 245 247 248 248 247 248 249 250 251 251 252 254 253 252 252 250 249 250 250 251 252 252 254 258 259 257 259 262 264 266 266 264 262 263 264 265 268 270 271 271 271 273 275 277 279 280 281 282 283 283 284 285 287 288 289 290 291 291 291 290 289 289
247 247 246 245 244 243 243 242 242 245 246 244 243 243 245 245 242 239 237 238 239 240 241 245 249 248 244 242 242 244 247 249 249 249 250 250 251 251 250 249 250 249 250 252 252 253 256 257 258 259 262 264 265 265 263 263 264 266 267 268 269 269 270 272 275 277 279 281 281 282 282 282 282 283 284 286 288 289 289 289 289 289 289 288 287
251 251 251 250 248 248 249 249 250 251 251 249 248 248 249 247 243 240 240 242 244 245 245 246 248 246 240 237 238 242 245 246 246 248 249 249 250 251 250 250 250 250 250 252 253 254 255 257 259 260 261 263 264 263 262 263 266 268 268 268 268 269 271 273 276 278 279 280 281 282 282 282 282 283 285 286 287 288 288 288 288 288 288 287 285
254 253 254 253 252 251 250 250 250 251 251 249 248 249 250 247 246 246 247 248 249 251 251 248 245 242 241 239 238 240 242 241 241 246 249 249 249 249 248 248 249 251 252 253 253 254 256 258 259 259 260 261 262 263 263 264 265 267 269 270 270 271 273 274 276 277 278 279 280 281 282 283 283 283 284 285 286 286 287 287 288 288 288 287 286
253 252 252 252 252 251 249 248 249 250 249 247 247 248 249 248 249 250 252 252 253 252 252 249 245 242 241 239 236 236 238 239 239 243 248 250 250 250 249 250 252 253 255 255 256 257 258 259 258 258 258 260 263 264 265 265 266 267 269 271 272 273 274 275 276 277 278 279 280 281 282 282 283 284 284 284 284 285 285 286 287 287 287 286 286
250 251 252 252 250 248 247 247 246 245 244 245 247 249 250 251 252 252 254 256 255 253 252 250 246 243 240 239 238 238 239 241 242 244 248 251 253 254 255 257 257 258 258 258 259 259 260 259 259 259 260 263 266 267 268 268 268 269 270 272 273 274 275 276 277 278 278 279 280 281 281 282 283 283 283 283 283 283 284 285 286 286 286 285 285
248 249 251 250 249 248 248 247 245 244 244 245 248 250 252 253 254 254 254 256 256 255 253 251 248 245 242 241 242 242 242 243 245 248 251 253 255 256 258 259 260 260 261 261 261 260 260 260 260 261 262 265 268 269 269 270 270 271 272 273 274 275 276 277 278 278 279 280 280 280 281 282 282 282 281 281 281 281 282 283 283 284 284 285 286
249 250 250 249 248 249 249 248 247 247 248 249 250 251 252 253 254 255 256 256 256 255 253 251 249 248 246 245 245 246 246 246 247 250 253 255 256 257 258 258 259 260 260 261 260 260 260 261 262 263 264 265 267 269 270 271 271 272 273 274 275 276 277 277 278 279 280 280 280 281 281 281 280 279 279 279 279 279 280 280 281 282 283 284 285
251 252 252 252 252 251 250 250 250 251 252 253 253 254 253 253 254 255 256 257 257 256 255 253 252 250 250 249 249 250 250 249 250 252 255 256 257 258 258 258 258 258 258 258 258 259 260 261 262 262 264 265 266 267 269 270 272 273 274 275 276 276 277 277 278 279 280 280 281 281 280 279 278 278 277 278 278 279 279 280 281 282 283 284 284
254 254 254 255 255 254 253 254 254 254 254 254 255 255 255 254 253 254 255 256 257 256 255 255 254 253 253 253 253 253 252 251 252 254 256 258 258 259 259 258 257 257 257 258 258 259 260 262 262 263 264 265 266 267 269 270 271 272 274 275 276 277 277 277 278 279 279 280 280 280 279 278 277 277 277 278 279 279 280 281 282 283 283 284 284
256 256 256 256 256 255 255 255 255 255 255 255 255 255 256 255 255 255 255 255 256 256 256 256 256 256 256 257 258 257 256 256 256 257 259 260 260 260 259 257 257 258 259 260 259 260 261 263 264 265 266 267 268 269 270 270 271 272 273 274 276 276 277 277 278 279 279 278 278 278 278 278 278 278 278 279 279 280 281 282 282 283 284 284 284
257 257 257 257 256 256 254 254 253 253 253 254 255 255 255 255 256 256 255 255 256 256 256 257 257 257 258 258 259 259 259 259 260 260 261 262 263 262 260 259 260 261 262 262 261 262 263 265 266 267 268 269 270 270 271 271 272 273 273 274 275 276 277 277 278 278 278 278 278 278 279 279 279 279 280 280 281 281 282 283 283 284 284 284 284
256 257 257 257 258 257 256 256 255 254 254 254 255 255 255 255 255 256 256 256 257 256 257 257 257 258 258 258 258 259 260 260 261 262 263 264 265 264 262 262 262 263 264 264 264 265 266 267 268 268 269 270 271 271 272 272 273 273 274 275 275 276 277 277 278 278 278 279 279 280 280 280 281 281 281 281 282 282 283 283 284 284 284 285 285
256 256 257 257 258 258 259 259 258 257 257 257 256 256 256 256 256 256 257 258 258 258 257 257 257 258 258 257 257 258 259 260 262 263 264 265 266 266 265 264 264 265 265 265 266 266 268 269 269 269 270 270 271 272 272 273 273 274 274 275 275 276 277 277 277 278 278 279 279 280 280 281 281 281 282 282 283 283 283 284 284 284 285 285 285
255 255 255 256 257 258 259 260 260 260 259 259 258 258 257 257 257 257 257 257 257 258 258 258 258 258 258 258 258 258 259 261 262 263 264 265 266 266 266 266 266 267 267 267 267 267 268 269 270 270 271 271 272 272 273 273 274 274 275 275 276 276 276 277 277 278 278 279 279 280 280 280 281 281 282 282 283 283 284 284 284 284 285 285 285
256 255 255 256 257 258 259 260 261 261 261 260 259 258 258 258 258 258 257 257 256 257 257 257 258 259 259 259 258 259 259 261 262 263 264 265 266 266 266 267 267 268 268 268 268 269 269 270 270 271 271 272 272 273 273 274 274 274 275 275 275 276 276 276 276 277 278 278 279 279 279 280 280 281 282 282 282 283 283 284 284 284 284 284 284
258 257 257 257 258 259 260 261 262 262 262 261 260 259 259 259 259 259 258 258 258 257 257 257 257 259 259 259 259 259 260 261 262 262 264 265 266 266 266 266 267 267 268 268 269 270 270 271 271 271 272 272 273 273 274 274 275 275 275 275 276 276 276 276 277 277 278 278 278 279 279 279 280 280 281 282 282 282 283 283 284 284 283 283 283
259 259 259 259 259 260 261 262 262 262 262 261 261 260 260 259 259 258 258 258 258 258 258 257 258 259 259 258 259 260 261 262 262 263 264 265 266 266 266 266 267 267 268 268 269 270 270 271 271 272 272 273 273 274 274 275 275 275 275 275 275 276 276 277 277 277 278 278 278 279 279 279 280 280 281 281 282 282 282 282 282 282 282 282 282
260 259 259 259 260 261 261 262 262 262 262 261 260 260 260 260 260 260 259 259 259 259 258 258 258 259 259 259 259 260 262 263 264 265 266 266 267 267 267 267 268 268 268 268 269 270 270 271 272 272 273 273 274 274 275 275 275 275 275 275 275 276 276 277 277 277 277 278 278 278 279 279 280 281 281 282 282 282 282 282 282 282 282 282 282
260 260 259 259 260 261 261 262 261 261 261 261 260 260 260 260 260 260 260 260 260 259 259 258 259 259 260 261 261 262 262 263 264 265 266 266 267 267 267 268 268 268 268 269 269 270 271 272 272 273 273 274 274 274 275 275 275 275 275 275 276 276 276 277 277 277 278 278 278 279 279 280 281 281 282 282 282 282 281 281 282 282 282 282 283
261 262 261 261 261 261 262 262 261 261 261 261 261 261 261 261 261 261 261 261 260 260 259 259 259 259 260 261 262 263 263 264 264 265 266 266 267 267 267 267 267 268 268 269 270 270 271 272 272 273 274 274 274 274 275 275 275 275 275 275 275 276 276 277 277 278 279 279 280 280 281 281 282 282 282 282 282 282 282 282 282 283 283 283 283
263 264 263 263 262 262 262 262 262 261 261 261 261 261 261 261 261 261 260 260 260 259 259 259 259 260 261 261 262 263 263 264 265 266 267 267 267 267 267 267 267 268 268 269 269 270 271 272 272 273 273 274 274 275 275 275 276 276 276 276 276 276 276 277 277 278 279 279 280 280 281 282 282 282 282 282 282 282 282 282 282 283 283 283 283
266 265 264 263 263 263 263 262 262 262 262 261 261 260 260 261 261 261 260 260 259 259 258 258 259 260 261 262 262 263 263 264 265 266 266 267 267 267 267 267 267 267 268 268 269 270 270 271 272 273 273 273 274 274 275 275 276 276 276 276 277 277 277 277 278 279 279 280 280 281 281 282 282 283 282 282 282 282 282 282 282 282 282 283 283
268 267 265 264 264 264 263 262 261 261 262 262 261 260 260 260 260 260 261 260 259 258 258 258 259 260 261 262 262 263 264 264 265 266 266 267 267 267 267 266 266 266 267 268 269 270 271 272 272 273 273 274 275 275 274 274 275 276 276 276 276 277 277 278 278 279 279 280 281 281 282 282 282 282 282 282 281 281 282 282 282 282 282 282 282
269 268 267 266 265 265 264 263 262 262 262 262 261 261 261 262 262 261 260 259 259 259 259 259 260 261 262 263 264 265 265 265 266 266 267 267 267 266 266 266 266 266 267 268 269 271 272 272 273 274 274 274 275 274 274 274 275 275 276 276 276 276 277 277 278 279 279 280 281 281 282 282 282 281 281 281 281 281 281 281 282 282 282 282 282
269 268 268 267 266 266 265 264 263 263 263 262 260 259 260 262 263 262 261 259 259 259 259 260 261 262 262 263 264 265 265 265 266 266 266 266 266 266 266 267 267 268 269 270 271 272 273 274 274 275 275 275 274 274 273 274 274 275 275 275 275 276 277 277 278 279 279 280 281 281 281 282 281 281 280 280 280 280 281 281 281 281 282 282 283
270 269 268 267 266 266 266 265 265 264 263 261 260 259 259 259 260 261 261 260 260 260 260 260 261 262 263 264 265 265 266 266 267 267 267 267 267 267 267 267 268 269 270 271 272 273 274 275 276 276 276 275 275 275 274 274 274 274 275 275 276 277 277 278 279 279 280 280 281 281 281 282 282 281 280 280 280 280 281 281 281 282 282 282 283
270 269 268 268 267 266 266 265 265 264 263 262 261 261 261 260 260 260 260 260 261 261 261 261 261 262 263 264 265 266 267 267 267 266 266 266 267 267 267 268 269 270 271 272 273 274 275 276 277 277 276 276 276 276 275 275 275 275 276 276 277 278 278 279 280 280 281 281 282 282 282 282 282 282 281 280 280 281 281 281 281 282 282 283 283